Location: Unnamed Road
(35.9029°N, 51.9749°E)
Time: 08:04:22
(UTC+04:30)

S-56A Canister/Altair - All Passes

Search period start: 28 May 2020 00:00
Search period end: 07 June 2020 00:00
Orbit: 633 x 2499 km, 38.9° (Epoch: 27 May)

Date Brightness Start Highest point End Pass type
(mag) Time Alt. Az. Time Alt. Az. Time Alt. Az.
28 May - 05:27:49 10° SW 05:33:30 47° SE 05:41:56 10° ENE daylight
28 May - 07:30:31 10° W 07:37:52 82° N 07:49:21 10° ENE daylight
28 May - 09:34:28 10° WNW 09:43:51 80° N 09:57:40 10° E daylight
28 May - 11:38:51 10° WNW 11:50:11 69° SSW 12:05:01 10° SE daylight
28 May - 13:44:53 10° W 13:55:59 32° SW 14:08:22 10° SSE daylight
29 May - 04:55:41 10° SSW 05:00:53 39° SE 05:08:19 10° ENE visible
29 May - 06:58:03 10° WSW 07:04:51 85° NNW 07:15:33 10° ENE daylight
29 May - 09:01:50 10° W 09:10:33 78° N 09:23:43 10° E daylight
29 May - 11:06:00 10° WNW 11:16:45 73° SSW 11:31:22 10° SE daylight
29 May - 13:11:31 10° W 13:22:35 36° SW 13:35:27 10° SSE daylight
30 May - 04:23:38 10° SSW 04:28:20 32° SE 04:34:45 10° E visible
30 May - 06:25:36 10° WSW 06:31:56 89° NNW 06:41:49 10° ENE daylight
30 May - 08:29:14 10° W 08:37:20 76° N 08:49:46 10° E daylight
30 May - 10:33:14 10° WNW 10:43:20 77° SSW 10:57:40 10° ESE daylight
30 May - 12:38:19 10° W 12:49:11 39° SW 13:02:24 10° SSE daylight
30 May - 14:50:48 10° WSW 14:54:16 11° SW 14:57:50 10° SW daylight
31 May - 03:51:40 10° SSW 03:55:50 25° SE 04:01:11 10° E visible
31 May - 05:53:12 10° WSW 05:59:06 85° SSE 06:08:12 10° ENE daylight
31 May - 07:56:41 10° W 08:04:12 74° N 08:15:52 10° E daylight
31 May - 10:00:32 10° WNW 10:10:01 82° SSW 10:23:53 10° ESE daylight
31 May - 12:05:15 10° W 12:15:49 43° SW 12:29:11 10° SSE daylight
31 May - 14:15:13 10° WSW 14:21:02 14° SW 14:27:11 10° SSW daylight
01 Jun - 03:19:51 10° S 03:23:22 19° SE 03:27:36 10° E visible
01 Jun - 05:20:50 10° WSW 05:26:21 78° SSE 05:34:40 10° ENE daylight
01 Jun - 07:24:11 10° W 07:31:09 73° N 07:41:59 10° E daylight
01 Jun - 09:27:54 10° WNW 09:36:45 86° SSW 09:50:04 10° ESE daylight
01 Jun - 11:32:17 10° WNW 11:42:27 46° SW 11:55:52 10° SSE daylight
01 Jun - 13:40:45 10° WSW 13:47:46 16° SW 13:55:27 10° SSW daylight
02 Jun - 02:48:16 10° SSE 02:50:54 15° SE 02:53:53 10° ESE visible
02 Jun - 04:48:30 10° WSW 04:53:40 70° SSE 05:01:13 10° ENE visible
02 Jun - 06:51:43 10° W 06:58:09 72° N 07:08:12 10° E daylight
02 Jun - 08:55:19 10° WNW 09:03:34 90° E 09:16:12 10° ESE daylight
02 Jun - 10:59:26 10° WNW 11:09:09 50° SSW 11:22:27 10° SE daylight
02 Jun - 13:06:49 10° W 13:14:31 19° SW 13:23:14 10° S daylight
03 Jun - 02:17:28 10° SE 02:18:27 11° SE 02:19:29 10° ESE visible
03 Jun - 04:16:12 10° SW 04:21:03 60° SSE 04:27:52 10° ENE visible
03 Jun - 06:19:16 10° W 06:25:16 72° N 06:34:30 10° E daylight
03 Jun - 08:22:47 10° WNW 08:30:27 86° NNE 08:42:21 10° ESE daylight
03 Jun - 10:26:40 10° WNW 10:35:53 53° SSW 10:48:57 10° SE daylight
03 Jun - 12:33:12 10° W 12:41:15 21° SW 12:50:43 10° S daylight
04 Jun - 03:43:56 10° SW 03:48:29 50° SSE 03:54:36 10° ENE visible
04 Jun - 05:46:49 10° W 05:52:26 73° N 06:00:54 10° ENE daylight
04 Jun - 07:50:18 10° WNW 07:57:24 82° NNE 08:08:31 10° ESE daylight
04 Jun - 09:53:58 10° WNW 10:02:40 57° SSW 10:15:23 10° SE daylight
04 Jun - 11:59:50 10° W 12:08:01 23° SW 12:17:59 10° S daylight
05 Jun - 03:11:41 10° SW 03:15:58 41° SSE 03:21:25 10° E visible
05 Jun - 05:14:24 10° W 05:19:40 75° N 05:27:25 10° ENE visible
05 Jun - 07:17:50 10° WNW 07:24:26 78° NNE 07:34:44 10° E daylight
05 Jun - 09:21:22 10° WNW 09:29:31 61° SSW 09:41:46 10° SE daylight
05 Jun - 11:26:39 10° W 11:34:48 26° SW 11:45:05 10° S daylight
06 Jun - 02:39:27 10° SSW 02:43:30 33° SE 02:48:18 10° E visible
06 Jun - 04:42:00 10° W 04:46:57 78° NNW 04:54:02 10° ENE visible
06 Jun - 06:45:24 10° WNW 06:51:32 74° N 07:01:00 10° E daylight
06 Jun - 08:48:48 10° WNW 08:56:27 66° SSW 09:08:08 10° SE daylight
06 Jun - 10:53:38 10° W 11:01:37 28° SW 11:12:02 10° SSE daylight
